Regional Weather Roundup
Issued by NWS

Home | Current Version | Previous Version | Text Only | Print | Product List | Glossary On
Versions: 1 2 3 4 5 6 7 8 9 10 11 12 13 14 15 16 17 18 19 20 21 22 23 24 25 26 27
000
ASUS44 KLIX 160913
RWRLA
LOUISIANA WEATHER ROUNDUP
NATIONAL WEATHER SERVICE NEW ORLEANS LA
300 AM CST TUE JAN 16 2018

NOTE: "FAIR" INDICATES FEW OR NO CLOUDS BELOW 12,000 FEET WITH NO
      SIGNIFICANT WEATHER AND/OR OBSTRUCTIONS TO VISIBILITY.
      SKY/WX - SKY CONDITION AND SIGNIFICANT WEATHER.
      TMP - AIR TEMPERATURE.    DP   - DEWPOINT TEMPERATURE.
      RH  - RELATIVE HUMIDITY.  PRES - PRESSURE.
      HX  - HEAT INDEX.         WCI  - WIND CHILL INDEX.

*  THESE STATIONS ARE NOT NWS OR FAA STATIONS AND ARE NOT UNDER
   NWS QUALITY CONTROL.

LAZ040-048-061>063-065-066-069-161000-
SOUTHEAST LOUISIANA

CITY           SKY/WX    TMP DP  RH WIND       PRES   REMARKS
N.O. INTL ARPT FAIR      44  43  96 CALM      30.35F
N.O. LAKEFRONT FAIR      46  44  93 SE9       30.35F
N.O. DOWNTOWN* FAIR      52  45  77 VRB5      30.35F
RESERVE*       FAIR      41  39  93 CALM      30.37R FOG
SLIDELL        FAIR      36  33  89 CALM      30.36S
BATON ROUGE    FAIR      37  36  96 CALM      30.39R
BOOTHVILLE     FAIR      49  47  93 N3        30.38R
BELLE CHASSE   FAIR      36  36 100 S3        30.35F
BOGALUSA*      FAIR      34  32  92 CALM      30.38R
GALLIANO*      FAIR      36  33  92 CALM      30.36F FOG
NEW ROADS*     CLOUDY    38  35  91 CALM      30.39S
GONZALES*      FAIR      38  37  99 CALM      30.37R FOG
HAMMOND*       FAIR      34  34 100 CALM      30.37S
HOUMA*         FAIR      39  38  99 SE3       30.35F FOG
PORT FOURCHON* SUNNY     48  46  93 CALM      30.37S

$$

LAZ041-044-053-054-161000-
SOUTHWEST LOUISIANA

CITY           SKY/WX    TMP DP  RH WIND       PRES   REMARKS
LAKE CHARLES   CLOUDY    49  44  83 N7        30.39R
LAFAYETTE      CLOUDY    43  40  89 N6        30.38R
PATTERSON      FAIR      40  39  97 CALM      30.37R
SALT POINT       N/A     44  42  93 NE3       30.34R
NEW IBERIA     CLOUDY    41  36  82 N3        30.37S
CHENAULT AIRPK CLOUDY    47  43  87 N3        30.39S

$$

LAZ027-028-161000-
CENTRAL LOUISIANA

CITY           SKY/WX    TMP DP  RH WIND       PRES   REMARKS
FORT POLK      CLOUDY    46  40  82 N14       30.41R
ALEXANDRIA INT CLOUDY    45  38  76 N10       30.40R
ALEXANDRIA     CLOUDY    44  36  73 N8        30.41R

$$

LAZ001-002-161000-
NORTHWEST LOUISIANA

CITY           SKY/WX    TMP DP  RH WIND       PRES   REMARKS
SHREVEPORT     LGT SNOW  30  30 100 N15G26    30.56R FOG     WCI  19
BARKSDALE AFB  LGT SNOW  29  28  95 N18G24    30.55R FOG     WCI  17
DTN SHREVEPORT   N/A    N/A N/A N/A MISG      30.56R

$$

LAZ014-016-161000-
NORTHEAST LOUISIANA

CITY           SKY/WX    TMP DP  RH WIND       PRES   REMARKS
MONROE         MIX PCPN  35  30  82 N20G25    30.51R WCI  24
TALLULAH       CLOUDY    34  31  88 N22       30.48R WCI  22

$$





USA.gov is the U.S. government's official web portal to all federal, state and local government web resources and services.